Location: Newark
(44.3681°N, 100.3364°W)
Time: 07:35:06
(UTC+00:00)

S-56A Canister/Altair - Pass Details

Date: 03 March 2020
Orbit: 634 x 2498 km, 38.9° (Epoch: 08 April)

Event Time Altitude Azimuth Distance (km) Brightness Sun altitude
Rises 19:55:22 0° 282° (WNW) 5,856 12.1 37.3°
Reaches altitude 10° 19:59:11 10° 277° (W) 4,991 11.9 37.1°
Maximum altitude 20:12:56 48° 210° (SSW) 3,031 12.7 36.1°
Drops below altitude 10° 20:26:05 10° 142° (SE) 4,768 11.9 35.1°
Sets 20:29:39 0° 137° (SE) 5,584 12.1 34.8°
